Total_Precipitation_Accumulation
0.31 0.25 0.42 0.46 0.32 0.20 0.13 0.08 0.11 0.09 0.12 0.13 0.19 0.16 0.05 0.01 0.00 0.00 0.00 0.00 0.00 0.00
0.44 0.26 0.25 0.32 0.30 0.22 0.20 0.14 0.11 0.09 0.08 0.08 0.04 0.06 0.02 0.01 0.00 0.00 0.00 0.00 0.00 0.00
0.53 0.42 0.27 0.23 0.19 0.17 0.15 0.17 0.16 0.14 0.11 0.08 0.04 0.01 0.00 0.00 0.00 0.00 0.00 0.00 0.00 0.00
0.46 0.47 0.44 0.41 0.17 0.14 0.13 0.12 0.15 0.13 0.10 0.06 0.04 0.01 0.00 0.00 0.00 0.00 0.00 0.00 0.00 0.00
0.43 0.42 0.40 0.35 0.29 0.15 0.12 0.10 0.09 0.09 0.08 0.06 0.02 0.01 0.01 0.00 0.00 0.00 0.00 0.00 0.00 0.00
0.32 0.38 0.39 0.42 0.38 0.23 0.13 0.08 0.11 0.08 0.06 0.05 0.03 0.03 0.02 0.01 0.01 0.01 0.00 0.00 0.01 0.02
0.24 0.47 0.43 0.41 0.40 0.31 0.27 0.15 0.09 0.12 0.12 0.11 0.09 0.09 0.09 0.08 0.08 0.08 0.10 0.11 0.12 0.10
0.38 0.46 0.40 0.31 0.32 0.24 0.26 0.25 0.18 0.19 0.23 0.25 0.27 0.24 0.20 0.18 0.18 0.18 0.18 0.18 0.20 0.21
0.45 0.32 0.44 0.53 0.57 0.44 0.36 0.21 0.15 0.14 0.19 0.23 0.27 0.37 0.36 0.33 0.27 0.24 0.25 0.25 0.22 0.20
0.48 0.52 0.55 0.36 0.41 0.53 0.35 0.35 0.30 0.25 0.19 0.16 0.19 0.39 0.39 0.38 0.32 0.35 0.33 0.33 0.34 0.30
0.06 0.10 0.27 0.24 0.15 0.23 0.31 0.22 0.31 0.38 0.35 0.31 0.34 0.40 0.37 0.40 0.31 0.33 0.32 0.30 0.29 0.28
0.00 0.00 0.00 0.01 0.02 0.04 0.16 0.28 0.28 0.24 0.23 0.31 0.35 0.39 0.31 0.24 0.18 0.22 0.20 0.19 0.19 0.18
0.00 0.00 0.00 0.00 0.00 0.01 0.01 0.04 0.07 0.09 0.10 0.18 0.17 0.21 0.16 0.10 0.05 0.07 0.08 0.08 0.10 0.14
0.00 0.00 0.00 0.00 0.00 0.00 0.00 0.00 0.01 0.00 0.01 0.01 0.03 0.04 0.06 0.07 0.04 0.03 0.05 0.04 0.03 0.03